Regional Weather Roundup
Issued by NWS

Home | Current Version | Previous Version | Text Only | Print | Product List | Glossary On
Versions: 1 2 3 4 5 6 7 8 9 10 11 12 13 14 15 16 17 18 19 20 21 22 23 24 25 26 27 28 29 30 31 32 33 34 35 36 37 38 39 40 41 42 43 44 45 46 47 48 49 50
939
ASCA44 KEWX 280020
RWRMX

LATIN AMERICA AND CARIBBEAN REGIONAL WEATHER ROUNDUP
NATIONAL WEATHER SERVICE AUSTIN/SAN ANTONIO TX
700 PM CDT SAT AUG 27 2016

NOTE: "FAIR" INDICATED FEW OR NO CLOUDS BELOW 12,000 FEET WITH NO
SIGNIFICANT WEATHER AND/OR OBSTRUCTIONS TO VISIBILITY.

BAJA CALIFORNIA

CITY           SKY/WX    TMP DP  RH WIND       PRES   REMARKS
LORETO         MOSUNNY   93  75  55 NE6       29.77F HX 104
LA PAZ         SUNNY     95  55  26 N3        29.82S HX  93
MEXICALI       SUNNY    100  39  12 E6        29.77F HX  95
S.J. DEL CABO  SUNNY     88  68  51 SE13      29.84S HX  91
TIJUANA        SUNNY     72  55  56 W12       29.97S

NORTHWESTERN MEXICO

CITY           SKY/WX    TMP DP  RH WIND       PRES   REMARKS
CULIACAN       PTSUNNY   93  73  52 W7        29.76S HX 102
DURANGO        CLOUDY    70  57  64 E9        30.17R
GUAYMAS        SUNNY     91  79  66 SW12      29.75S HX 107
HERMOSILLO     MOSUNNY  100  61  27 SW15      29.83F HX 101
CD. JUAREZ     MOSUNNY   90  59  35 S6        29.93S
LOS MOCHIS     SUNNY     91  66  43 W14       29.80S HX  94
OBREGON        SUNNY     95  68  41 SW13      29.76S HX  99

NORTHEASTERN MEXICO

CITY           SKY/WX    TMP DP  RH WIND       PRES   REMARKS
CHIHUAHUA      PTSUNNY   82  54  36 CALM      30.05R
MATAMOROS      MOSUNNY   90  73  58 E13       29.86R HX  98
MONCLOVA       PTSUNNY   84  68  58 E6        29.91S
MONTERREY      PTSUNNY   88  64  45 S13       29.89R
NUEVO LAREDO   MOSUNNY   95  64  36 E6        29.86R HX  97
PIEDRAS NEGRAS PTSUNNY   93  68  43 E8        29.90S HX  97
REYNOSA        MOSUNNY   90  66  45 E14       29.85  HX  92
SALTILLO       CLOUDY    75  61  60 N12       30.15S
TORREON        PTSUNNY   84  66  54 E7        30.00R
CD. VICTORIA   MOSUNNY   95  64  36 E17       29.85R HX  97

WESTERN MEXICO

CITY           SKY/WX    TMP DP  RH WIND       PRES   REMARKS
AGUASCALIENTES RAIN      70  57  64 E8        30.18R
COLIMA         CLOUDY    75  70  83 CALM      29.95R
DEL BAJIO      CLOUDY    73  59  60 NE5       30.21R
GUADALAJARA    PTSUNNY   77  57  50 S6        30.09R
MANZANILLO     MOSUNNY   86  79  79 W6        29.76R HX  99
MAZATLAN       PTSUNNY   88  79  74 W8        29.81R HX 102
P. VALLARTA    PTSUNNY   88  79  74 S12       29.78S HX 102
URUAPAN        CLOUDY    68  63  83 CALM      30.12F
ZACATECAS      MOSUNNY   63  57  82 CALM      30.21F

CENTRAL MEXICO

CITY           SKY/WX    TMP DP  RH WIND       PRES   REMARKS
CUERNAVACA     MOSUNNY   77  64  65 SW2       30.02S
MEXICO CITY    CLOUDY    66  54  63 NW9       30.23S THUNDER
MORELIA        CLOUDY    66  59  77 SW5       30.17R
POZA RICA      SUNNY     86  77  74 E12       29.91R HX  97
PUEBLA         PTSUNNY   72  55  56 S13       30.22S
QUERETARO      PTSUNNY   73  55  53 NE12      30.22
S. LUIS POTOSI PTSUNNY   73  54  49 SE9       30.17R
TAMPICO        MOSUNNY   84  75  74 SE12      29.86S HX  92
TOLUCA         CLOUDY    64  52  63 S12       30.30S

SOUTHERN MEXICO

CITY           SKY/WX    TMP DP  RH WIND       PRES   REMARKS
ACAPULCO       PTSUNNY   86  77  74 SW6       29.78S HX  97
B. DE HUATULCO   N/A    N/A N/A N/A MISG        N/A
OAXACA         CLOUDY    66  59  77 N13       30.13R
P. ESCONDIDO   MOCLDY    86  75  70 MISG      29.90R HX  95
VERACRUZ       MOCLDY    86  77  74 N5        29.87R HX  97
ZIHUATANEJO    MOSUNNY   90  77  66 S3        29.81R HX 102

YUCATAN PENINSULA

CITY           SKY/WX    TMP DP  RH WIND       PRES   REMARKS
CAMPECHE       MOCLDY    86  79  79 NW12      29.81S HX  99
CANCUN         PTCLDY    84  79  84 N5        29.86R HX  96
CHETUMAL       PTCLDY    88  77  70 E12       29.83R HX 100
CD. DEL CARMEN PTCLDY    86  77  74 N9        29.84R HX  97
COZUMEL        MOCLDY    81  77  89 NE7       29.86R
MERIDA         MOCLDY    88  70  55 N7        29.85R HX  92
MINATITLAN     MOCLDY    86  68  54 N12       29.80R
TAPACHULA      MOCLDY    81  75  83 NE7       29.80S
TUX. GUTIERREZ PTCLDY    82  70  65 W13       29.86R
VILLAHERMOSA   MOCLDY    84  77  79 N7        29.86R HX  94

CENTRAL AMERICA

CITY           SKY/WX    TMP DP  RH WIND       PRES   REMARKS
BELIZE CITY    PTCLDY    86  77  74 E8        29.85R HX  97
MANAGUA        PTCLDY    86  73  66 S5        29.74R HX  93

CARIBBEAN

CITY           SKY/WX    TMP DP  RH WIND       PRES   REMARKS
ARUBA          PTCLDY    84  79  84 E14       29.83R HX  96
CURACAO        PTCLDY    84  77  79 E16       29.86R HX  94
KINGSTON       PTCLDY    84  73  70 SE16      29.86R HX  91
NASSAU         MOCLDY    84  77  79 E13       29.88R HX  94
SAN JUAN       PTCLDY    82  75  78 E7        29.95R
SANTO DOMINGO  RAIN      77  73  88 E5        29.94R
ST. CROIX      CLEAR     79  75  89 N5        29.94S
ST. KITTS      PTCLDY    79  75  89 N8        29.94S
ST. MAARTEN    PTCLDY    82  75  78 E5        29.94R

$$





USA.gov is the U.S. government's official web portal to all federal, state and local government web resources and services.